Tracking 28790 objects as of 19-Apr-2024
HD Live streaming from Space Station
objects crossing your sky now

STARLINK-5691

Track STARLINK-5691 now!
10-day predictions
STARLINK-5691 is classified as:


NORAD ID: 55478
Int'l Code: 2023-015AF
Perigee: 565.4 km
Apogee: 567.1 km
Inclination: 43.0 °
Period: 95.8 minutes
Semi major axis: 6937 km
RCS: Unknown
Launch date: February 2, 2023
Source: United States (US)
Launch site: AIR FORCE EASTERN TEST RANGE (AFETR)
Your satellite tracking list
Your tracking list is empty




NASA's NSSDC Master Catalog

Two Line Element Set (TLE):
1 55478U 23015AF  24109.42072608  .00002369  00000-0  19041-3 0  9993
2 55478  43.0027 104.2230 0001251 265.6099  94.4601 15.02534194 67062
Source of the keplerian elements: AFSPC